Year,Month,Day,Hour,Minute,Value (Times are PST for windgust in km/hr)
2006,01,28,00,00,54.70
2006,01,28,00,01,49.90
2006,01,28,00,02,54.70
2006,01,28,00,03,66.00
2006,01,28,00,04,61.20
2006,01,28,00,05,61.20
2006,01,28,00,06,56.30
2006,01,28,00,07,48.30
2006,01,28,00,08,66.00
2006,01,28,00,09,59.50
2006,01,28,00,10,54.70
2006,01,28,00,11,61.20
2006,01,28,00,12,59.50
2006,01,28,00,13,64.40
2006,01,28,00,14,82.10
2006,01,28,00,15,78.80
2006,01,28,00,16,45.10
2006,01,28,00,17,70.80
2006,01,28,00,18,75.60
2006,01,28,00,19,57.90
2006,01,28,00,20,67.60
2006,01,28,00,21,64.40
2006,01,28,00,22,69.20
2006,01,28,00,23,49.90
2006,01,28,00,24,56.30
2006,01,28,00,25,74.00
2006,01,28,00,26,66.00
2006,01,28,00,27,64.40
2006,01,28,00,28,61.20
2006,01,28,00,29,59.50
2006,01,28,00,30,64.40
2006,01,28,00,31,53.10
2006,01,28,00,32,46.70
2006,01,28,00,33,64.40
2006,01,28,00,34,69.20
2006,01,28,00,35,49.90
2006,01,28,00,36,48.30
2006,01,28,00,37,53.10
2006,01,28,00,38,64.40
2006,01,28,00,39,48.30
2006,01,28,00,40,70.80
2006,01,28,00,41,69.20
2006,01,28,00,42,57.90
2006,01,28,00,43,53.10
2006,01,28,00,44,53.10
2006,01,28,00,45,43.50
2006,01,28,00,46,49.90
2006,01,28,00,47,45.10
2006,01,28,00,48,72.40
2006,01,28,00,49,59.50
2006,01,28,00,50,53.10
2006,01,28,00,51,32.20
2006,01,28,00,52,51.50
2006,01,28,00,53,35.40
2006,01,28,00,54,19.30
2006,01,28,00,55,19.30
2006,01,28,00,56,19.30
2006,01,28,00,57,19.30
2006,01,28,00,58,19.30
2006,01,28,00,59,19.30
2006,01,28,01,00,53.10
2006,01,28,01,01,59.50
2006,01,28,01,02,59.50
2006,01,28,01,03,69.20
2006,01,28,01,04,61.20
2006,01,28,01,05,61.20
2006,01,28,01,06,70.80
2006,01,28,01,07,67.60
2006,01,28,01,08,56.30
2006,01,28,01,09,40.20
2006,01,28,01,10,62.70
2006,01,28,01,11,53.10
2006,01,28,01,12,69.20
2006,01,28,01,13,56.30
2006,01,28,01,14,51.50
2006,01,28,01,15,33.80
2006,01,28,01,16,33.80
2006,01,28,01,17,33.80
2006,01,28,01,18,33.80
2006,01,28,01,19,70.80
2006,01,28,01,20,67.60
2006,01,28,01,21,51.50
2006,01,28,01,22,38.60
2006,01,28,01,23,56.30
2006,01,28,01,24,49.90
2006,01,28,01,25,40.20
2006,01,28,01,26,48.30
2006,01,28,01,27,46.70
2006,01,28,01,28,56.30
2006,01,28,01,29,22.50
2006,01,28,01,30,46.70
2006,01,28,01,31,64.40
2006,01,28,01,32,46.70
2006,01,28,01,33,54.70
2006,01,28,01,34,64.40
2006,01,28,01,35,62.70
2006,01,28,01,36,53.10
2006,01,28,01,37,66.00
2006,01,28,01,38,46.70
2006,01,28,01,39,41.80
2006,01,28,01,40,29.00
2006,01,28,01,41,43.50
2006,01,28,01,42,61.20
2006,01,28,01,43,46.70
2006,01,28,01,44,66.00
2006,01,28,01,45,59.50
2006,01,28,01,46,62.70
2006,01,28,01,47,53.10
2006,01,28,01,48,56.30
2006,01,28,01,49,64.40
2006,01,28,01,50,49.90
2006,01,28,01,51,64.40
2006,01,28,01,52,54.70
2006,01,28,01,53,64.40
2006,01,28,01,54,53.10
2006,01,28,01,55,70.80
2006,01,28,01,56,61.20
2006,01,28,01,57,56.30
2006,01,28,01,58,57.90
2006,01,28,01,59,43.50
2006,01,28,02,00,53.10
2006,01,28,02,01,64.40
2006,01,28,02,02,61.20
2006,01,28,02,03,64.40
2006,01,28,02,04,57.90
2006,01,28,02,05,46.70
2006,01,28,02,06,54.70
2006,01,28,02,07,54.70
2006,01,28,02,08,59.50
2006,01,28,02,09,54.70
2006,01,28,02,10,51.50
2006,01,28,02,11,62.70
2006,01,28,02,12,57.90
2006,01,28,02,13,61.20
2006,01,28,02,14,33.80
2006,01,28,02,15,43.50
2006,01,28,02,16,53.10
2006,01,28,02,17,49.90
2006,01,28,02,18,43.50
2006,01,28,02,19,38.60
2006,01,28,02,20,45.10
2006,01,28,02,21,46.70
2006,01,28,02,22,64.40
2006,01,28,02,23,64.40
2006,01,28,02,24,38.60
2006,01,28,02,25,48.30
2006,01,28,02,26,51.50
2006,01,28,02,27,54.70
2006,01,28,02,28,67.60
2006,01,28,02,29,51.50
2006,01,28,02,30,70.80
2006,01,28,02,31,57.90
2006,01,28,02,32,74.00
2006,01,28,02,33,59.50
2006,01,28,02,34,53.10
2006,01,28,02,35,54.70
2006,01,28,02,36,49.90
2006,01,28,02,37,51.50
2006,01,28,02,38,62.70
2006,01,28,02,39,53.10
2006,01,28,02,40,62.70
2006,01,28,02,41,56.30
2006,01,28,02,42,62.70
2006,01,28,02,43,64.40
2006,01,28,02,44,56.30
2006,01,28,02,45,62.70
2006,01,28,02,46,53.10
2006,01,28,02,47,67.60
2006,01,28,02,48,61.20
2006,01,28,02,49,69.20
2006,01,28,02,50,59.50
2006,01,28,02,51,49.90
2006,01,28,02,52,72.40
2006,01,28,02,53,54.70
2006,01,28,02,54,69.20
2006,01,28,02,55,54.70
2006,01,28,02,56,46.70
2006,01,28,02,57,46.70
2006,01,28,02,58,67.60
2006,01,28,02,59,57.90
2006,01,28,03,00,49.90
2006,01,28,03,01,61.20
2006,01,28,03,02,72.40
2006,01,28,03,03,62.70
2006,01,28,03,04,62.70
2006,01,28,03,05,70.80
2006,01,28,03,06,49.90
2006,01,28,03,07,64.40
2006,01,28,03,08,61.20
2006,01,28,03,09,53.10
2006,01,28,03,10,64.40
2006,01,28,03,11,61.20
2006,01,28,03,12,82.10
2006,01,28,03,13,54.70
2006,01,28,03,14,59.50
2006,01,28,03,15,57.90
2006,01,28,03,16,57.90
2006,01,28,03,17,74.00
2006,01,28,03,18,57.90
2006,01,28,03,19,53.10
2006,01,28,03,20,62.70
2006,01,28,03,21,43.50
2006,01,28,03,22,51.50
2006,01,28,03,23,54.70
2006,01,28,03,24,64.40
2006,01,28,03,25,54.70
2006,01,28,03,26,51.50
2006,01,28,03,27,51.50
2006,01,28,03,28,51.50
2006,01,28,03,29,53.10
2006,01,28,03,30,56.30
2006,01,28,03,31,64.40
2006,01,28,03,32,57.90
2006,01,28,03,33,56.30
2006,01,28,03,34,53.10
2006,01,28,03,35,53.10
2006,01,28,03,36,49.90
2006,01,28,03,37,49.90
2006,01,28,03,38,43.50
2006,01,28,03,39,43.50
2006,01,28,03,40,53.10
2006,01,28,03,41,56.30
2006,01,28,03,42,49.90
2006,01,28,03,43,43.50
2006,01,28,03,44,46.70
2006,01,28,03,45,49.90
2006,01,28,03,46,49.90
2006,01,28,03,47,62.70
2006,01,28,03,48,49.90
2006,01,28,03,49,45.10
2006,01,28,03,50,53.10
2006,01,28,03,51,56.30
2006,01,28,03,52,53.10
2006,01,28,03,53,38.60
2006,01,28,03,54,53.10
2006,01,28,03,55,51.50
2006,01,28,03,56,54.70
2006,01,28,03,57,53.10
2006,01,28,03,58,51.50
2006,01,28,03,59,53.10
2006,01,28,04,00,38.60
2006,01,28,04,01,53.10
2006,01,28,04,02,53.10
2006,01,28,04,03,48.30
2006,01,28,04,04,38.60
2006,01,28,04,05,32.20
2006,01,28,04,06,33.80
2006,01,28,04,07,51.50
2006,01,28,04,08,46.70
2006,01,28,04,09,45.10
2006,01,28,04,10,49.90
2006,01,28,04,11,61.20
2006,01,28,04,12,53.10
2006,01,28,04,13,46.70
2006,01,28,04,14,30.60
2006,01,28,04,15,61.20
2006,01,28,04,16,49.90
2006,01,28,04,17,40.20
2006,01,28,04,18,54.70
2006,01,28,04,19,53.10
2006,01,28,04,20,53.10
2006,01,28,04,21,62.70
2006,01,28,04,22,46.70
2006,01,28,04,23,64.40
2006,01,28,04,24,56.30
2006,01,28,04,25,53.10
2006,01,28,04,26,43.50
2006,01,28,04,27,45.10
2006,01,28,04,28,37.00
2006,01,28,04,29,37.00
2006,01,28,04,30,53.10
2006,01,28,04,31,40.20
2006,01,28,04,32,54.70
2006,01,28,04,33,51.50
2006,01,28,04,34,41.80
2006,01,28,04,35,46.70
2006,01,28,04,36,33.80
2006,01,28,04,37,33.80
2006,01,28,04,38,37.00
2006,01,28,04,39,46.70
2006,01,28,04,40,45.10
2006,01,28,04,41,35.40
2006,01,28,04,42,46.70
2006,01,28,04,43,38.60
2006,01,28,04,44,48.30
2006,01,28,04,45,43.50
2006,01,28,04,46,32.20
2006,01,28,04,47,27.40
2006,01,28,04,48,35.40
2006,01,28,04,49,33.80
2006,01,28,04,50,22.50
2006,01,28,04,51,24.20
2006,01,28,04,52,16.10
2006,01,28,04,53,24.20
2006,01,28,04,54,35.40
2006,01,28,04,55,32.20
2006,01,28,04,56,22.50
2006,01,28,04,57,33.80
2006,01,28,04,58,32.20
2006,01,28,04,59,25.70
2006,01,28,05,00,22.50
2006,01,28,05,01,22.50
2006,01,28,05,02,25.70
2006,01,28,05,03,24.20
2006,01,28,05,04,22.50
2006,01,28,05,05,25.70
2006,01,28,05,06,24.20
2006,01,28,05,07,27.40
2006,01,28,05,08,37.00
2006,01,28,05,09,24.20
2006,01,28,05,10,24.20
2006,01,28,05,11,35.40
2006,01,28,05,12,25.70
2006,01,28,05,13,38.60
2006,01,28,05,14,45.10
2006,01,28,05,15,48.30
2006,01,28,05,16,80.50
2006,01,28,05,17,49.90
2006,01,28,05,18,46.70
2006,01,28,05,19,51.50
2006,01,28,05,20,49.90
2006,01,28,05,21,49.90
2006,01,28,05,22,72.40
2006,01,28,05,23,54.70
2006,01,28,05,24,45.10
2006,01,28,05,25,46.70
2006,01,28,05,26,46.70
2006,01,28,05,27,45.10
2006,01,28,05,28,32.20
2006,01,28,05,29,43.50
2006,01,28,05,30,45.10
2006,01,28,05,31,45.10
2006,01,28,05,32,48.30
2006,01,28,05,33,53.10
2006,01,28,05,34,46.70
2006,01,28,05,35,32.20
2006,01,28,05,36,29.00
2006,01,28,05,37,32.20
2006,01,28,05,38,30.60
2006,01,28,05,39,30.60
2006,01,28,05,40,29.00
2006,01,28,05,41,27.40
2006,01,28,05,42,27.40
2006,01,28,05,43,24.20
2006,01,28,05,44,29.00
2006,01,28,05,45,33.80
2006,01,28,05,46,29.00
2006,01,28,05,47,22.50
2006,01,28,05,48,29.00
2006,01,28,05,49,38.60
2006,01,28,05,50,27.40
2006,01,28,05,51,27.40
2006,01,28,05,52,30.60
2006,01,28,05,53,38.60
2006,01,28,05,54,40.20
2006,01,28,05,55,33.80
2006,01,28,05,56,33.80
2006,01,28,05,57,45.10
2006,01,28,05,58,29.00
2006,01,28,05,59,33.80
2006,01,28,06,00,32.20
2006,01,28,06,01,37.00
2006,01,28,06,02,33.80
2006,01,28,06,03,32.20
2006,01,28,06,04,22.50
2006,01,28,06,05,32.20
2006,01,28,06,06,46.70
2006,01,28,06,07,41.80
2006,01,28,06,08,38.60
2006,01,28,06,09,46.70
2006,01,28,06,10,30.60
2006,01,28,06,11,16.10
2006,01,28,06,12,16.10
2006,01,28,06,13,37.00
2006,01,28,06,14,32.20
2006,01,28,06,15,30.60
2006,01,28,06,16,33.80
2006,01,28,06,17,33.80
2006,01,28,06,18,32.20
2006,01,28,06,19,25.70
2006,01,28,06,20,33.80
2006,01,28,06,21,35.40
2006,01,28,06,22,46.70
2006,01,28,06,23,32.20
2006,01,28,06,24,40.20
2006,01,28,06,25,40.20
2006,01,28,06,26,33.80
2006,01,28,06,27,37.00
2006,01,28,06,28,49.90
2006,01,28,06,29,46.70
2006,01,28,06,30,30.60
2006,01,28,06,31,40.20
2006,01,28,06,32,41.80
2006,01,28,06,33,40.20
2006,01,28,06,34,45.10
2006,01,28,06,35,33.80
2006,01,28,06,36,35.40
2006,01,28,06,37,32.20
2006,01,28,06,38,38.60
2006,01,28,06,39,33.80
2006,01,28,06,40,27.40
2006,01,28,06,41,22.50
2006,01,28,06,42,29.00
2006,01,28,06,43,29.00
2006,01,28,06,44,38.60
2006,01,28,06,45,32.20
2006,01,28,06,46,35.40
2006,01,28,06,47,30.60
2006,01,28,06,48,40.20
2006,01,28,06,49,30.60
2006,01,28,06,50,32.20
2006,01,28,06,51,33.80
2006,01,28,06,52,29.00
2006,01,28,06,53,35.40
2006,01,28,06,54,32.20
2006,01,28,06,55,32.20
2006,01,28,06,56,30.60
2006,01,28,06,57,30.60
2006,01,28,06,58,33.80
2006,01,28,06,59,29.00
2006,01,28,07,00,40.20
2006,01,28,07,01,43.50
2006,01,28,07,02,37.00
2006,01,28,07,03,29.00
2006,01,28,07,04,24.20
2006,01,28,07,05,27.40
2006,01,28,07,06,32.20
2006,01,28,07,07,30.60
2006,01,28,07,08,33.80
2006,01,28,07,09,40.20
2006,01,28,07,10,38.60
2006,01,28,07,11,29.00
2006,01,28,07,12,41.80
2006,01,28,07,13,40.20
2006,01,28,07,14,30.60
2006,01,28,07,15,37.00
2006,01,28,07,16,33.80
2006,01,28,07,17,38.60
2006,01,28,07,18,37.00
2006,01,28,07,19,46.70
2006,01,28,07,20,37.00
2006,01,28,07,21,35.40
2006,01,28,07,22,27.40
2006,01,28,07,23,40.20
2006,01,28,07,24,37.00
2006,01,28,07,25,37.00
2006,01,28,07,26,35.40
2006,01,28,07,27,37.00
2006,01,28,07,28,38.60
2006,01,28,07,29,41.80
2006,01,28,07,30,32.20
2006,01,28,07,31,37.00
2006,01,28,07,32,25.70
2006,01,28,07,33,37.00
2006,01,28,07,34,14.50
2006,01,28,07,35,14.50
2006,01,28,07,36,46.70
2006,01,28,07,37,33.80
2006,01,28,07,38,27.40
2006,01,28,07,39,43.50
2006,01,28,07,40,33.80
2006,01,28,07,41,32.20
2006,01,28,07,42,45.10
2006,01,28,07,43,22.50
2006,01,28,07,44,48.30
2006,01,28,07,45,38.60
2006,01,28,07,46,45.10
2006,01,28,07,47,41.80
2006,01,28,07,48,35.40
2006,01,28,07,49,48.30
2006,01,28,07,50,40.20
2006,01,28,07,51,45.10
2006,01,28,07,52,38.60
2006,01,28,07,53,43.50
2006,01,28,07,54,48.30
2006,01,28,07,55,33.80
2006,01,28,07,56,32.20
2006,01,28,07,57,41.80
2006,01,28,07,58,43.50
2006,01,28,07,59,59.50
2006,01,28,08,00,49.90
2006,01,28,08,01,64.40
2006,01,28,08,02,54.70
2006,01,28,08,03,49.90
2006,01,28,08,04,53.10
2006,01,28,08,05,51.50
2006,01,28,08,06,46.70
2006,01,28,08,07,43.50
2006,01,28,08,08,40.20
2006,01,28,08,09,48.30
2006,01,28,08,10,43.50
2006,01,28,08,11,38.60
2006,01,28,08,12,27.40
2006,01,28,08,13,35.40
2006,01,28,08,14,37.00
2006,01,28,08,15,38.60
2006,01,28,08,16,40.20
2006,01,28,08,17,25.70
2006,01,28,08,18,35.40
2006,01,28,08,19,30.60
2006,01,28,08,20,43.50
2006,01,28,08,21,35.40
2006,01,28,08,22,41.80
2006,01,28,08,23,30.60
2006,01,28,08,24,32.20
2006,01,28,08,25,33.80
2006,01,28,08,26,27.40
2006,01,28,08,27,29.00
2006,01,28,08,28,32.20
2006,01,28,08,29,19.30
2006,01,28,08,30,24.20
2006,01,28,08,31,24.20
2006,01,28,08,32,25.70
2006,01,28,08,33,33.80
2006,01,28,08,34,22.50
2006,01,28,08,35,24.20
2006,01,28,08,36,25.70
2006,01,28,08,37,11.30
2006,01,28,08,38,11.30
2006,01,28,08,39,19.30
2006,01,28,08,40,33.80
2006,01,28,08,41,25.70
2006,01,28,08,42,20.90
2006,01,28,08,43,27.40
2006,01,28,08,44,22.50
2006,01,28,08,45,24.20
2006,01,28,08,46,14.50
2006,01,28,08,47,9.60
2006,01,28,08,48,11.30
2006,01,28,08,49,9.60
2006,01,28,08,50,11.30
2006,01,28,08,51,6.40
2006,01,28,08,52,4.80
2006,01,28,08,53,6.40
2006,01,28,08,54,6.40
2006,01,28,08,55,6.40
2006,01,28,08,56,9.60
2006,01,28,08,57,8.10
2006,01,28,08,58,6.40
2006,01,28,08,59,6.40
2006,01,28,09,00,11.30
2006,01,28,09,01,12.90
2006,01,28,09,02,17.70
2006,01,28,09,03,14.50
2006,01,28,09,04,11.30
2006,01,28,09,05,11.30
2006,01,28,09,06,14.50
2006,01,28,09,07,14.50
2006,01,28,09,08,17.70
2006,01,28,09,09,20.90
2006,01,28,09,10,19.30
2006,01,28,09,11,22.50
2006,01,28,09,12,16.10
2006,01,28,09,13,16.10
2006,01,28,09,14,19.30
2006,01,28,09,15,14.50
2006,01,28,09,16,24.20
2006,01,28,09,17,22.50
2006,01,28,09,18,24.20
2006,01,28,09,19,19.30
2006,01,28,09,20,11.30
2006,01,28,09,21,16.10
2006,01,28,09,22,20.90
2006,01,28,09,23,14.50
2006,01,28,09,24,11.30
2006,01,28,09,25,11.30
2006,01,28,09,26,17.70
2006,01,28,09,27,25.70
2006,01,28,09,28,22.50
2006,01,28,09,29,20.90
2006,01,28,09,30,19.30
2006,01,28,09,31,20.90
2006,01,28,09,32,20.90
2006,01,28,09,33,20.90
2006,01,28,09,34,24.20
2006,01,28,09,35,20.90
2006,01,28,09,36,19.30
2006,01,28,09,37,12.90
2006,01,28,09,38,17.70
2006,01,28,09,39,24.20
2006,01,28,09,40,25.70
2006,01,28,09,41,17.70
2006,01,28,09,42,4.80
2006,01,28,09,43,29.00
2006,01,28,09,44,25.70
2006,01,28,09,45,29.00
2006,01,28,09,46,24.20
2006,01,28,09,47,17.70
2006,01,28,09,48,27.40
2006,01,28,09,49,25.70
2006,01,28,09,50,20.90
2006,01,28,09,51,22.50
2006,01,28,09,52,20.90
2006,01,28,09,53,19.30
2006,01,28,09,54,20.90
2006,01,28,09,55,17.70
2006,01,28,09,56,22.50
2006,01,28,09,57,24.20
2006,01,28,09,58,19.30
2006,01,28,09,59,22.50
2006,01,28,10,00,24.20
2006,01,28,10,01,29.00
2006,01,28,10,02,33.80
2006,01,28,10,03,30.60
2006,01,28,10,04,24.20
2006,01,28,10,05,19.30
2006,01,28,10,06,29.00
2006,01,28,10,07,41.80
2006,01,28,10,08,40.20
2006,01,28,10,09,38.60
2006,01,28,10,10,45.10
2006,01,28,10,11,45.10
2006,01,28,10,12,38.60
2006,01,28,10,13,37.00
2006,01,28,10,14,32.20
2006,01,28,10,15,30.60
2006,01,28,10,16,32.20
2006,01,28,10,17,27.40
2006,01,28,10,18,30.60
2006,01,28,10,19,27.40
2006,01,28,10,20,20.90
2006,01,28,10,21,24.20
2006,01,28,10,22,20.90
2006,01,28,10,23,17.70
2006,01,28,10,24,17.70
2006,01,28,10,25,20.90
2006,01,28,10,26,25.70
2006,01,28,10,27,22.50
2006,01,28,10,28,22.50
2006,01,28,10,29,20.90
2006,01,28,10,30,11.30
2006,01,28,10,31,17.70
2006,01,28,10,32,17.70
2006,01,28,10,33,12.90
2006,01,28,10,34,14.50
2006,01,28,10,35,16.10
2006,01,28,10,36,14.50
2006,01,28,10,37,11.30
2006,01,28,10,38,9.60
2006,01,28,10,39,19.30
2006,01,28,10,40,20.90
2006,01,28,10,41,12.90
2006,01,28,10,42,11.30
2006,01,28,10,43,6.40
2006,01,28,10,44,9.60
2006,01,28,10,45,11.30
2006,01,28,10,46,8.10
2006,01,28,10,47,6.40
2006,01,28,10,48,6.40
2006,01,28,10,49,8.10
2006,01,28,10,50,6.40
2006,01,28,10,51,9.60
2006,01,28,10,52,9.60
2006,01,28,10,53,9.60
2006,01,28,10,54,6.40
2006,01,28,10,55,9.60
2006,01,28,10,56,6.40
2006,01,28,10,57,16.10
2006,01,28,10,58,11.30
2006,01,28,10,59,11.30
2006,01,28,11,00,14.50
2006,01,28,11,01,9.60
2006,01,28,11,02,20.90
2006,01,28,11,03,17.70
2006,01,28,11,04,35.40
2006,01,28,11,05,32.20
2006,01,28,11,06,40.20
2006,01,28,11,07,25.70
2006,01,28,11,08,22.50
2006,01,28,11,09,32.20
2006,01,28,11,10,30.60
2006,01,28,11,11,27.40
2006,01,28,11,12,20.90
2006,01,28,11,13,22.50
2006,01,28,11,14,24.20
2006,01,28,11,15,19.30
2006,01,28,11,16,30.60
2006,01,28,11,17,22.50
2006,01,28,11,18,17.70
2006,01,28,11,19,20.90
2006,01,28,11,20,16.10
2006,01,28,11,21,19.30
2006,01,28,11,22,25.70
2006,01,28,11,23,24.20
2006,01,28,11,24,17.70
2006,01,28,11,25,22.50
2006,01,28,11,26,20.90
2006,01,28,11,27,19.30
2006,01,28,11,28,19.30
2006,01,28,11,29,19.30
2006,01,28,11,30,14.50
2006,01,28,11,31,11.30
2006,01,28,11,32,16.10
2006,01,28,11,33,14.50
2006,01,28,11,34,20.90
2006,01,28,11,35,25.70
2006,01,28,11,36,16.10
2006,01,28,11,37,24.20
2006,01,28,11,38,16.10
2006,01,28,11,39,16.10
2006,01,28,11,40,17.70
2006,01,28,11,41,19.30
2006,01,28,11,42,14.50
2006,01,28,11,43,14.50
2006,01,28,11,44,20.90
2006,01,28,11,45,25.70
2006,01,28,11,46,20.90
2006,01,28,11,47,17.70
2006,01,28,11,48,19.30
2006,01,28,11,49,17.70
2006,01,28,11,50,27.40
2006,01,28,11,51,25.70
2006,01,28,11,52,24.20
2006,01,28,11,53,24.20
2006,01,28,11,54,24.20
2006,01,28,11,55,29.00
2006,01,28,11,56,19.30
2006,01,28,11,57,22.50
2006,01,28,11,58,20.90
2006,01,28,11,59,19.30
2006,01,28,12,00,20.90
2006,01,28,12,01,25.70
2006,01,28,12,02,25.70
2006,01,28,12,03,17.70
2006,01,28,12,04,22.50
2006,01,28,12,05,24.20
2006,01,28,12,06,25.70
2006,01,28,12,07,19.30
2006,01,28,12,08,25.70
2006,01,28,12,09,27.40
2006,01,28,12,10,22.50
2006,01,28,12,11,17.70
2006,01,28,12,12,25.70
2006,01,28,12,13,16.10
2006,01,28,12,14,20.90
2006,01,28,12,15,22.50
2006,01,28,12,16,20.90
2006,01,28,12,17,19.30
2006,01,28,12,18,17.70
2006,01,28,12,19,19.30
2006,01,28,12,20,19.30
2006,01,28,12,21,20.90
2006,01,28,12,22,17.70
2006,01,28,12,23,19.30
2006,01,28,12,24,17.70
2006,01,28,12,25,16.10
2006,01,28,12,26,22.50
2006,01,28,12,27,11.30
2006,01,28,12,28,24.20
2006,01,28,12,29,29.00
2006,01,28,12,30,24.20
2006,01,28,12,31,24.20
2006,01,28,12,32,29.00
2006,01,28,12,33,16.10
2006,01,28,12,34,14.50
2006,01,28,12,35,16.10
2006,01,28,12,36,6.40
2006,01,28,12,37,24.20
2006,01,28,12,38,30.60
2006,01,28,12,39,30.60
2006,01,28,12,40,22.50
2006,01,28,12,41,25.70
2006,01,28,12,42,27.40
2006,01,28,12,43,25.70
2006,01,28,12,44,19.30
2006,01,28,12,45,14.50
2006,01,28,12,46,8.10
2006,01,28,12,47,16.10
2006,01,28,12,48,19.30
2006,01,28,12,49,16.10
2006,01,28,12,50,17.70
2006,01,28,12,51,25.70
2006,01,28,12,52,16.10
2006,01,28,12,53,16.10
2006,01,28,12,54,22.50
2006,01,28,12,55,25.70
2006,01,28,12,56,25.70
2006,01,28,12,57,17.70
2006,01,28,12,58,12.90
2006,01,28,12,59,19.30
2006,01,28,13,00,17.70
2006,01,28,13,01,14.50
2006,01,28,13,02,27.40
2006,01,28,13,03,22.50
2006,01,28,13,04,24.20
2006,01,28,13,05,27.40
2006,01,28,13,06,20.90
2006,01,28,13,07,27.40
2006,01,28,13,08,30.60
2006,01,28,13,09,24.20
2006,01,28,13,10,25.70
2006,01,28,13,11,20.90
2006,01,28,13,12,17.70
2006,01,28,13,13,27.40
2006,01,28,13,14,20.90
2006,01,28,13,15,20.90
2006,01,28,13,16,20.90
2006,01,28,13,17,22.50
2006,01,28,13,18,20.90
2006,01,28,13,19,16.10
2006,01,28,13,20,20.90
2006,01,28,13,21,20.90
2006,01,28,13,22,22.50
2006,01,28,13,23,25.70
2006,01,28,13,24,30.60
2006,01,28,13,25,29.00
2006,01,28,13,26,27.40
2006,01,28,13,27,30.60
2006,01,28,13,28,25.70
2006,01,28,13,29,24.20
2006,01,28,13,30,27.40
2006,01,28,13,31,30.60
2006,01,28,13,32,45.10
2006,01,28,13,33,33.80
2006,01,28,13,34,32.20
2006,01,28,13,35,35.40
2006,01,28,13,36,41.80
2006,01,28,13,37,38.60
2006,01,28,13,38,29.00
2006,01,28,13,39,40.20
2006,01,28,13,40,43.50
2006,01,28,13,41,30.60
2006,01,28,13,42,35.40
2006,01,28,13,43,33.80
2006,01,28,13,44,25.70
2006,01,28,13,45,22.50
2006,01,28,13,46,30.60
2006,01,28,13,47,20.90
2006,01,28,13,48,25.70
2006,01,28,13,49,25.70
2006,01,28,13,50,25.70
2006,01,28,13,51,17.70
2006,01,28,13,52,22.50
2006,01,28,13,53,17.70
2006,01,28,13,54,12.90
2006,01,28,13,55,16.10
2006,01,28,13,56,16.10
2006,01,28,13,57,14.50
2006,01,28,13,58,11.30
2006,01,28,13,59,19.30
2006,01,28,14,00,33.80
2006,01,28,14,01,30.60
2006,01,28,14,02,17.70
2006,01,28,14,03,29.00
2006,01,28,14,04,22.50
2006,01,28,14,05,40.20
2006,01,28,14,06,30.60
2006,01,28,14,07,37.00
2006,01,28,14,08,33.80
2006,01,28,14,09,24.20
2006,01,28,14,10,29.00
2006,01,28,14,11,30.60
2006,01,28,14,12,33.80
2006,01,28,14,13,27.40
2006,01,28,14,14,24.20
2006,01,28,14,15,33.80
2006,01,28,14,16,19.30
2006,01,28,14,17,20.90
2006,01,28,14,18,29.00
2006,01,28,14,19,24.20
2006,01,28,14,20,29.00
2006,01,28,14,21,24.20
2006,01,28,14,22,27.40
2006,01,28,14,23,25.70
2006,01,28,14,24,29.00
2006,01,28,14,25,27.40
2006,01,28,14,26,25.70
2006,01,28,14,27,22.50
2006,01,28,14,28,19.30
2006,01,28,14,29,9.60
2006,01,28,14,30,24.20
2006,01,28,14,31,24.20
2006,01,28,14,32,17.70
2006,01,28,14,33,32.20
2006,01,28,14,34,27.40
2006,01,28,14,35,24.20
2006,01,28,14,36,27.40
2006,01,28,14,37,24.20
2006,01,28,14,38,35.40
2006,01,28,14,39,32.20
2006,01,28,14,40,19.30
2006,01,28,14,41,27.40
2006,01,28,14,42,25.70
2006,01,28,14,43,16.10
2006,01,28,14,44,17.70
2006,01,28,14,45,35.40
2006,01,28,14,46,38.60
2006,01,28,14,47,37.00
2006,01,28,14,48,32.20
2006,01,28,14,49,24.20
2006,01,28,14,50,24.20
2006,01,28,14,51,24.20
2006,01,28,14,52,24.20
2006,01,28,14,53,19.30
2006,01,28,14,54,14.50
2006,01,28,14,55,14.50
2006,01,28,14,56,8.10
2006,01,28,14,57,11.30
2006,01,28,14,58,14.50
2006,01,28,14,59,14.50
2006,01,28,15,00,16.10
2006,01,28,15,01,9.60
2006,01,28,15,02,8.10
2006,01,28,15,03,8.10
2006,01,28,15,04,8.10
2006,01,28,15,05,9.60
2006,01,28,15,06,9.60
2006,01,28,15,07,19.30
2006,01,28,15,08,16.10
2006,01,28,15,09,12.90
2006,01,28,15,10,14.50
2006,01,28,15,11,20.90
2006,01,28,15,12,17.70
2006,01,28,15,13,11.30
2006,01,28,15,14,8.10
2006,01,28,15,15,9.60
2006,01,28,15,16,9.60
2006,01,28,15,17,9.60
2006,01,28,15,18,17.70
2006,01,28,15,19,9.60
2006,01,28,15,20,9.60
2006,01,28,15,21,11.30
2006,01,28,15,22,9.60
2006,01,28,15,23,11.30
2006,01,28,15,24,17.70
2006,01,28,15,25,16.10
2006,01,28,15,26,8.10
2006,01,28,15,27,17.70
2006,01,28,15,28,11.30
2006,01,28,15,29,17.70
2006,01,28,15,30,30.60
2006,01,28,15,31,20.90
2006,01,28,15,32,16.10
2006,01,28,15,33,22.50
2006,01,28,15,34,16.10
2006,01,28,15,35,17.70
2006,01,28,15,36,20.90
2006,01,28,15,37,16.10
2006,01,28,15,38,20.90
2006,01,28,15,39,22.50
2006,01,28,15,40,11.30
2006,01,28,15,41,9.60
2006,01,28,15,42,9.60
2006,01,28,15,43,17.70
2006,01,28,15,44,16.10
2006,01,28,15,45,19.30
2006,01,28,15,46,17.70
2006,01,28,15,47,14.50
2006,01,28,15,48,9.60
2006,01,28,15,49,16.10
2006,01,28,15,50,20.90
2006,01,28,15,51,16.10
2006,01,28,15,52,16.10
2006,01,28,15,53,22.50
2006,01,28,15,54,24.20
2006,01,28,15,55,22.50
2006,01,28,15,56,20.90
2006,01,28,15,57,24.20
2006,01,28,15,58,20.90
2006,01,28,15,59,19.30
2006,01,28,16,00,22.50
2006,01,28,16,01,17.70
2006,01,28,16,02,17.70
2006,01,28,16,03,11.30
2006,01,28,16,04,16.10
2006,01,28,16,05,20.90
2006,01,28,16,06,14.50
2006,01,28,16,07,11.30
2006,01,28,16,08,19.30
2006,01,28,16,09,16.10
2006,01,28,16,10,35.40
2006,01,28,16,11,38.60
2006,01,28,16,12,30.60
2006,01,28,16,13,25.70
2006,01,28,16,14,24.20
2006,01,28,16,15,32.20
2006,01,28,16,16,32.20
2006,01,28,16,17,24.20
2006,01,28,16,18,11.30
2006,01,28,16,19,20.90
2006,01,28,16,20,17.70
2006,01,28,16,21,20.90
2006,01,28,16,22,20.90
2006,01,28,16,23,22.50
2006,01,28,16,24,17.70
2006,01,28,16,25,20.90
2006,01,28,16,26,27.40
2006,01,28,16,27,25.70
2006,01,28,16,28,29.00
2006,01,28,16,29,22.50
2006,01,28,16,30,17.70
2006,01,28,16,31,17.70
2006,01,28,16,32,14.50
2006,01,28,16,33,22.50
2006,01,28,16,34,22.50
2006,01,28,16,35,9.60
2006,01,28,16,36,20.90
2006,01,28,16,37,29.00
2006,01,28,16,38,27.40
2006,01,28,16,39,25.70
2006,01,28,16,40,22.50
2006,01,28,16,41,24.20
2006,01,28,16,42,24.20
2006,01,28,16,43,17.70
2006,01,28,16,44,24.20
2006,01,28,16,45,25.70
2006,01,28,16,46,30.60
2006,01,28,16,47,14.50
2006,01,28,16,48,27.40
2006,01,28,16,49,24.20
2006,01,28,16,50,17.70
2006,01,28,16,51,24.20
2006,01,28,16,52,20.90
2006,01,28,16,53,29.00
2006,01,28,16,54,25.70
2006,01,28,16,55,27.40
2006,01,28,16,56,27.40
2006,01,28,16,57,29.00
2006,01,28,16,58,38.60
2006,01,28,16,59,37.00
2006,01,28,17,00,32.20
2006,01,28,17,01,24.20
2006,01,28,17,02,37.00
2006,01,28,17,03,29.00
2006,01,28,17,04,17.70
2006,01,28,17,05,9.60
2006,01,28,17,06,11.30
2006,01,28,17,07,30.60
2006,01,28,17,08,25.70
2006,01,28,17,09,27.40
2006,01,28,17,10,40.20
2006,01,28,17,11,33.80
2006,01,28,17,12,38.60
2006,01,28,17,13,32.20
2006,01,28,17,14,37.00
2006,01,28,17,15,37.00
2006,01,28,17,16,37.00
2006,01,28,17,17,27.40
2006,01,28,17,18,22.50
2006,01,28,17,19,32.20
2006,01,28,17,20,35.40
2006,01,28,17,21,29.00